Regional Weather Roundup
Issued by NWS

Home | Current Version | Previous Version | Graphics & Text | Print | Product List | Glossary On
Versions: 1 2 3 4 5 6 7 8 9 10 11 12 13 14 15 16 17 18 19 20 21 22 23 24 25 26 27 28 29 30 31 32 33 34 35 36 37 38 39 40 41 42 43 44 45 46 47 48 49 50
000
ASUS43 KLSX 252210
RWRMO

WEATHER SUMMARY FOR MISSOURI
NATIONAL WEATHER SERVICE SPRINGFIELD MO
500 PM CDT SUN JUN 25 2017

NOTE: "FAIR" INDICATES FEW OR NO CLOUDS BELOW 12,000 FEET WITH NO
       SIGNIFICANT WEATHER AND/OR OBSTRUCTIONS TO VISIBILITY.
       CURRENT SKY AND/OR WEATHER CONDITIONS ARE NOT AVAILABLE FOR
       CHILLICOTHE AND FARMINGTON.

MOZ001>031-035>038-043-044-053-054-252300-
...NORTHERN AND WESTERN MISSOURI...

CITY           SKY/WX    TMP DP  RH WIND       PRES   REMARKS
KANSAS CTY INT CLOUDY    67  51  56 W7        30.28F
KANSAS C DTWN  CLOUDY    70  49  47 SW10      30.27S
LEE`S SUMMIT   CLOUDY    68  50  52 W7        30.29R
ST JOSEPH      PTSUNNY   76  51  41 W10       30.25F
CHILLICOTHE      N/A     76  46  34 NW10      30.25R
KIRKSVILLE     SUNNY     74  45  35 W14G21    30.22F

$$
MOZ066>068-077>081-088>096-101>105-252300-
...SOUTHWEST MISSOURI...

CITY           SKY/WX    TMP DP  RH WIND       PRES   REMARKS
SPRINGFIELD    MOSUNNY   78  59  51 NW8       30.24F
JOPLIN         CLOUDY    83  59  44 NE6       30.24F
BRANSON        PTSUNNY   82  50  32 SW6       30.25S

$$
MOZ032>034-039>042-045>050-055>058-069>072-252300-
...CENTRAL MISSOURI...

CITY           SKY/WX    TMP DP  RH WIND       PRES   REMARKS
COLUMBIA       PTSUNNY   77  49  37 W12       30.23R
JEFFERSON CITY CLOUDY    80  46  30 NW12      30.21S
ROLLA          MOSUNNY   80  50  34 W10       30.20F
SEDALIA        CLOUDY    76  52  43 NW8G17    30.25R
WHITEMAN AFB   PTSUNNY   75  51  42 NW10      30.24S
WARRENSBURG    CLOUDY    72  50  46 NW8       30.25F
OSAGE BEACH    CLOUDY    79  52  38 W8        30.24R

$$
MOZ051-052-059>065-252300-
...EAST CENTRAL MISSOURI...

CITY           SKY/WX    TMP DP  RH WIND       PRES   REMARKS
ST LOUIS INTL  MOSUNNY   83  45  26 NW18G26   30.17S
SPIRIT OF STL  MOSUNNY   82  47  29 W14G25    30.16F
ST CHARLES     SUNNY     80  45  28 NW17      30.16S

$$
MOZ072>076-082>087-097>100-106>115-252300-
...SOUTH CENTRAL AND SOUTHEAST MISSOURI...

CITY           SKY/WX    TMP DP  RH WIND       PRES   REMARKS
CAPE GIRARDEAU SUNNY     84  49  29 W8        30.15F
FARMINGTON     MOSUNNY   82  50  32 NW12G20   30.19F
POPLAR BLUFF   SUNNY     86  50  28 W5        30.16F
WEST PLAINS    MOSUNNY   83  50  31 VRB7      30.23S

$$




USA.gov is the U.S. government's official web portal to all federal, state and local government web resources and services.